When you browse on this site, cookies collect data to enhance your experience and personalize the content and advertising you see.
Visit our Privacy Policy to learn more. By continuing to use the site, you agree to this use of cookies and data.
  • In Österreich
  • Länderverzeichnis
  • Für 7 Tage
  • Wassertemperatur
  • Satellitenkarten
  • Wetterkarte
  • News
  • Widgets
  • user-avatar
    Anmelden

    Stündliche Wetter Brisbane

    Heute, 21 Mai, Dienstag

    Zeit Temperatur Niederschläge Wind Luftdruck Luftfeuchtigkeit
    00:00 +17°C° 0 mm 2 m/S 767 mmHg 92%
    01:00 +17°C° 0 mm 2 m/S 767 mmHg 93%
    02:00 +17°C° 0 mm 2 m/S 767 mmHg 93%
    03:00 +17°C° 0 mm 2 m/S 767 mmHg 93%
    04:00 +18°C° 0 mm 1 m/S 767 mmHg 94%
    05:00 +19°C° 0 mm 1 m/S 767 mmHg 93%
    06:00 +19°C° 0 mm 1 m/S 767 mmHg 93%
    07:00 +19°C° 0 mm 1 m/S 768 mmHg 92%
    08:00 +21°C° 0.1 mm 1 m/S 768 mmHg 85%
    09:00 +22°C° 0.1 mm 1 m/S 768 mmHg 77%
    10:00 +24°C° 0 mm 2 m/S 768 mmHg 68%
    11:00 +25°C° 0 mm 2 m/S 767 mmHg 62%
    12:00 +26°C° 0 mm 3 m/S 767 mmHg 57%
    13:00 +26°C° 0 mm 3 m/S 767 mmHg 52%
    14:00 +26°C° 0 mm 3 m/S 766 mmHg 54%
    15:00 +25°C° 0 mm 3 m/S 766 mmHg 56%
    16:00 +24°C° 0 mm 2 m/S 766 mmHg 57%
    17:00 +23°C° 0 mm 2 m/S 766 mmHg 62%
    18:00 +21°C° 0 mm 2 m/S 767 mmHg 66%
    19:00 +20°C° 0 mm 2 m/S 767 mmHg 71%
    20:00 +19°C° 0 mm 2 m/S 767 mmHg 73%
    21:00 +20°C° 0 mm 1 m/S 768 mmHg 75%
    22:00 +19°C° 0 mm 1 m/S 768 mmHg 77%
    23:00 +19°C° 0 mm 1 m/S 768 mmHg 79%

    Morgen, 22 Mai, Mittwoch

    Zeit Temperatur Niederschläge Wind Luftdruck Luftfeuchtigkeit
    00:00 +19°C° 0 mm 1 m/S 768 mmHg 81%
    01:00 +18°C° 0 mm 1 m/S 768 mmHg 83%
    02:00 +18°C° 0 mm 1 m/S 768 mmHg 84%
    03:00 +17°C° 0 mm 2 m/S 768 mmHg 86%
    04:00 +16°C° 0 mm 2 m/S 768 mmHg 87%
    05:00 +16°C° 0 mm 2 m/S 768 mmHg 87%
    06:00 +16°C° 0 mm 2 m/S 768 mmHg 86%
    07:00 +16°C° 0 mm 2 m/S 768 mmHg 86%
    08:00 +19°C° 0 mm 2 m/S 768 mmHg 77%
    09:00 +21°C° 0 mm 2 m/S 769 mmHg 68%
    10:00 +24°C° 0 mm 3 m/S 769 mmHg 60%
    11:00 +25°C° 0 mm 3 m/S 768 mmHg 57%
    12:00 +26°C° 0 mm 3 m/S 768 mmHg 55%
    13:00 +26°C° 0 mm 3 m/S 767 mmHg 52%
    14:00 +26°C° 0 mm 3 m/S 767 mmHg 56%
    15:00 +25°C° 0 mm 4 m/S 767 mmHg 59%
    16:00 +23°C° 0 mm 4 m/S 767 mmHg 63%
    17:00 +22°C° 0 mm 3 m/S 767 mmHg 68%
    18:00 +21°C° 0 mm 3 m/S 767 mmHg 72%
    19:00 +20°C° 0 mm 3 m/S 768 mmHg 77%
    20:00 +19°C° 0 mm 3 m/S 768 mmHg 79%
    21:00 +19°C° 0 mm 2 m/S 768 mmHg 80%
    22:00 +19°C° 0 mm 2 m/S 768 mmHg 81%
    23:00 +18°C° 0 mm 2 m/S 768 mmHg 82%

    übermorgen, 23 Mai, Donnerstag

    Zeit Temperatur Niederschläge Wind Luftdruck Luftfeuchtigkeit
    00:00 +18°C° 0 mm 2 m/S 768 mmHg 84%
    01:00 +17°C° 0 mm 2 m/S 768 mmHg 85%
    02:00 +17°C° 0 mm 2 m/S 768 mmHg 85%
    03:00 +17°C° 0 mm 2 m/S 768 mmHg 86%
    04:00 +16°C° 0 mm 2 m/S 767 mmHg 87%
    05:00 +16°C° 0 mm 2 m/S 768 mmHg 87%
    06:00 +16°C° 0 mm 2 m/S 768 mmHg 87%
    07:00 +16°C° 0 mm 2 m/S 768 mmHg 87%
    08:00 +18°C° 0 mm 3 m/S 768 mmHg 78%
    09:00 +20°C° 0 mm 3 m/S 768 mmHg 68%
    10:00 +24°C° 0 mm 3 m/S 768 mmHg 59%
    11:00 +24°C° 0.1 mm 3 m/S 768 mmHg 59%
    12:00 +23°C° 0.1 mm 4 m/S 767 mmHg 59%
    13:00 +25°C° 0.1 mm 4 m/S 766 mmHg 59%
    14:00 +23°C° 0 mm 4 m/S 766 mmHg 60%
    15:00 +23°C° 0 mm 4 m/S 766 mmHg 62%
    16:00 +22°C° 0 mm 4 m/S 766 mmHg 64%
    17:00 +21°C° 0 mm 3 m/S 766 mmHg 67%
    18:00 +20°C° 0 mm 3 m/S 767 mmHg 71%
    19:00 +19°C° 0 mm 2 m/S 767 mmHg 74%
    20:00 +19°C° 0 mm 2 m/S 767 mmHg 76%
    21:00 +18°C° 0 mm 2 m/S 767 mmHg 77%
    22:00 +18°C° 0 mm 2 m/S 767 mmHg 78%
    23:00 +17°C° 0 mm 2 m/S 767 mmHg 80%

    24 Mai, Freitag

    Zeit Temperatur Niederschläge Wind Luftdruck Luftfeuchtigkeit
    00:00 +17°C° 0 mm 2 m/S 767 mmHg 82%
    01:00 +16°C° 0 mm 2 m/S 766 mmHg 84%
    02:00 +16°C° 0 mm 2 m/S 766 mmHg 84%
    03:00 +16°C° 0 mm 2 m/S 766 mmHg 85%
    04:00 +15°C° 0 mm 2 m/S 766 mmHg 85%
    05:00 +15°C° 0 mm 2 m/S 766 mmHg 85%
    06:00 +15°C° 0 mm 2 m/S 766 mmHg 84%
    07:00 +15°C° 0 mm 2 m/S 766 mmHg 84%
    08:00 +18°C° 0 mm 2 m/S 766 mmHg 75%
    09:00 +20°C° 0 mm 2 m/S 766 mmHg 67%
    10:00 +23°C° 0 mm 2 m/S 767 mmHg 59%
    11:00 +24°C° 0 mm 2 m/S 766 mmHg 55%
    12:00 +25°C° 0 mm 2 m/S 765 mmHg 51%
    13:00 +26°C° 0 mm 2 m/S 764 mmHg 47%
    14:00 +26°C° 0 mm 2 m/S 764 mmHg 51%
    15:00 +25°C° 0 mm 2 m/S 764 mmHg 55%
    16:00 +24°C° 0 mm 3 m/S 763 mmHg 58%
    17:00 +22°C° 0 mm 3 m/S 764 mmHg 66%
    18:00 +21°C° 0 mm 2 m/S 764 mmHg 74%
    19:00 +19°C° 0 mm 2 m/S 765 mmHg 82%
    20:00 +19°C° 0 mm 2 m/S 765 mmHg 84%
    21:00 +19°C° 0 mm 1 m/S 765 mmHg 85%
    22:00 +19°C° 0 mm 1 m/S 765 mmHg 87%
    23:00 +19°C° 0 mm 1 m/S 765 mmHg 88%

    25 Mai, Samstag

    Zeit Temperatur Niederschläge Wind Luftdruck Luftfeuchtigkeit
    00:00 +17°C° 0 mm 2 m/S 765 mmHg 90%
    01:00 +17°C° 0 mm 2 m/S 765 mmHg 91%
    02:00 +16°C° 0 mm 2 m/S 764 mmHg 92%
    03:00 +16°C° 0 mm 2 m/S 764 mmHg 92%
    04:00 +16°C° 0 mm 2 m/S 764 mmHg 92%
    05:00 +16°C° 0 mm 2 m/S 764 mmHg 91%
    06:00 +16°C° 0 mm 2 m/S 764 mmHg 91%
    07:00 +15°C° 0 mm 2 m/S 765 mmHg 90%
    08:00 +18°C° 0 mm 2 m/S 765 mmHg 81%
    09:00 +22°C° 0 mm 1 m/S 765 mmHg 71%
    10:00 +24°C° 0 mm 1 m/S 765 mmHg 62%
    11:00 +25°C° 0 mm 1 m/S 764 mmHg 56%
    12:00 +26°C° 0 mm 1 m/S 763 mmHg 51%
    13:00 +27°C° 0 mm 1 m/S 762 mmHg 46%
    14:00 +26°C° 0 mm 1 m/S 762 mmHg 49%
    15:00 +26°C° 0 mm 2 m/S 762 mmHg 53%
    16:00 +25°C° 0 mm 2 m/S 762 mmHg 56%
    17:00 +23°C° 0 mm 2 m/S 762 mmHg 64%
    18:00 +21°C° 0 mm 2 m/S 763 mmHg 72%
    19:00 +20°C° 0 mm 2 m/S 763 mmHg 80%
    20:00 +20°C° 0 mm 1 m/S 763 mmHg 82%
    21:00 +20°C° 0 mm 1 m/S 763 mmHg 85%
    22:00 +19°C° 0 mm 1 m/S 763 mmHg 87%
    23:00 +19°C° 0 mm 1 m/S 763 mmHg 88%

    26 Mai, Sonntag

    Zeit Temperatur Niederschläge Wind Luftdruck Luftfeuchtigkeit
    00:00 +18°C° 0 mm 1 m/S 763 mmHg 90%
    01:00 +18°C° 0 mm 1 m/S 762 mmHg 91%
    02:00 +17°C° 0 mm 2 m/S 762 mmHg 91%
    03:00 +16°C° 0 mm 2 m/S 762 mmHg 91%
    04:00 +16°C° 0 mm 2 m/S 762 mmHg 91%
    05:00 +16°C° 0 mm 2 m/S 762 mmHg 89%
    06:00 +15°C° 0 mm 2 m/S 763 mmHg 87%
    07:00 +15°C° 0 mm 2 m/S 763 mmHg 85%
    08:00 +18°C° 0 mm 2 m/S 763 mmHg 74%
    09:00 +20°C° 0 mm 2 m/S 762 mmHg 62%
    10:00 +24°C° 0 mm 2 m/S 762 mmHg 51%
    11:00 +25°C° 0 mm 2 m/S 761 mmHg 44%
    12:00 +27°C° 0 mm 2 m/S 761 mmHg 38%
    13:00 +28°C° 0 mm 2 m/S 760 mmHg 31%
    14:00 +28°C° 0 mm 2 m/S 760 mmHg 33%
    15:00 +27°C° 0 mm 2 m/S 759 mmHg 36%
    16:00 +27°C° 0 mm 2 m/S 759 mmHg 38%
    17:00 +25°C° 0 mm 2 m/S 760 mmHg 44%
    18:00 +23°C° 0 mm 2 m/S 760 mmHg 50%
    19:00 +20°C° 0 mm 2 m/S 761 mmHg 57%
    20:00 +19°C° 0 mm 2 m/S 761 mmHg 56%
    21:00 +19°C° 0 mm 2 m/S 761 mmHg 55%
    22:00 +18°C° 0 mm 2 m/S 761 mmHg 54%
    23:00 +18°C° 0 mm 2 m/S 761 mmHg 54%
    Mehr zeigen